Probability
6 6 6 10 3 0 0 0 0 0 0 0 0 0 3 3 3 3 3 6 26 48 61 77 87 90 90 87 90 90 94 94 94 94 94 90 94 90 97 97 97 94 97 97 97 97 94 94 94
0 0 13 3 3 0 0 0 0 0 0 0 0 0 3 6 10 6 10 23 29 35 48 68 90 90 90 87 90 90 94 94 90 90 90 94 97 94 90 90 94 97 97 97 97 94 90 90 90
0 0 3 0 0 0 0 0 0 0 0 0 0 0 3 13 10 6 10 23 26 39 58 81 90 87 87 87 90 90 94 94 94 94 94 94 94 94 94 90 94 94 94 94 90 94 84 77 77
0 0 0 0 0 0 0 0 0 0 0 0 6 6 3 13 13 10 19 29 32 42 68 90 90 87 90 87 90 90 90 90 90 94 94 94 94 94 94 94 94 94 90 90 94 84 84 81 68
0 0 0 0 0 0 0 0 0 0 0 3 10 6 6 16 16 19 23 29 35 42 71 90 97 90 90 90 90 94 90 90 90 90 90 94 90 90 90 90 90 90 87 87 87 84 77 74 74
0 0 0 0 0 0 3 0 3 0 3 6 6 6 10 23 32 26 32 32 45 58 71 87 100 97 97 94 90 94 90 90 90 90 90 94 94 90 90 90 90 90 90 87 81 77 68 65 71
0 0 0 0 0 0 0 0 3 3 0 6 3 3 6 16 26 32 32 42 48 71 71 74 84 87 97 97 97 90 90 90 90 94 94 94 94 94 90 90 90 90 90 84 77 65 61 61 61
0 0 0 0 0 0 3 0 3 0 6 6 3 0 3 13 23 32 39 39 52 65 68 71 68 74 77 87 94 94 94 94 94 94 94 94 94 90 90 87 90 87 84 68 65 55 48 52 61
0 0 0 0 0 0 3 6 3 3 3 10 3 3 10 29 35 29 32 35 48 55 61 58 61 61 65 65 84 84 90 90 94 94 94 81 55 58 71 87 87 87 77 61 52 48 52 58 55
0 0 0 0 0 0 0 6 6 6 10 13 13 13 26 26 42 35 39 39 45 48 58 55 55 55 58 65 65 65 68 65 65 68 68 52 29 32 65 87 87 84 81 68 68 68 58 42 19
0 0 0 0 0 0 0 3 6 10 16 13 13 23 29 23 32 39 42 45 45 55 58 52 52 48 45 52 58 55 61 58 58 55 55 39 32 32 45 39 45 48 55 19 42 45 29 23 13
0 0 0 0 0 0 0 6 6 13 16 23 19 26 26 23 19 32 35 39 52 65 52 55 42 35 29 45 55 58 61 52 48 58 45 26 29 23 16 19 19 23 13 6 10 3 10 6 6
0 0 0 0 0 0 3 6 16 23 29 29 23 23 32 23 26 26 26 29 32 52 58 52 42 32 32 35 45 48 48 42 48 42 42 26 23 16 13 19 6 19 10 10 13 6 6 6 6
0 0 0 0 0 6 10 19 26 26 29 26 26 26 32 32 26 35 32 39 42 48 48 48 48 39 29 29 32 42 35 42 42 39 45 35 19 13 13 6 6 6 10 3 10 10 3 3 6
0 0 0 0 0 10 16 26 32 35 29 23 29 26 26 32 39 48 45 35 48 48 61 61 55 45 42 42 42 42 35 39 32 32 35 29 16 13 10 6 10 13 6 10 6 0 0 3 0
0 0 0 0 0 0 13 23 39 39 32 29 23 26 29 32 42 48 52 42 55 55 55 58 71 65 65 55 55 45 42 35 26 29 35 32 29 26 19 10 16 16 6 6 3 0 0 0 0
0 0 0 0 0 0 6 23 39 45 35 29 29 32 35 39 52 48 55 65 61 58 65 58 68 61 65 65 58 55 45 39 32 29 35 29 29 29 26 29 26 19 10 6 10 3 0 0 0
0 0 0 0 0 0 10 19 32 32 35 32 32 39 48 39 48 52 58 65 65 68 61 61 65 65 61 71 61 61 55 55 42 35 35 32 32 32 19 19 23 16 13 10 6 6 0 0 3
0 0 0 0 0 0 3 19 29 29 26 39 42 42 45 45 52 55 74 61 65 68 71 68 68 68 68 74 68 61 58 55 48 39 32 26 26 26 19 23 16 16 10 10 13 3 3 3 3
0 0 0 0 0 0 0 10 19 26 26 35 45 39 45 48 61 74 84 84 77 71 71 77 74 74 71 68 68 61 58 55 45 45 39 45 29 19 23 19 19 19 10 13 6 3 3 0 3
0 0 0 0 0 0 0 6 13 19 23 23 42 35 45 48 68 77 81 84 81 74 77 81 84 74 77 71 74 68 52 48 45 35 32 29 39 32 29 19 19 23 23 13 13 13 10 3 0
0 0 0 0 0 0 0 0 3 13 16 19 32 39 39 42 68 77 81 84 87 81 81 81 81 81 84 77 77 81 65 55 39 39 39 35 39 39 39 29 29 26 23 16 13 10 6 6 3
0 0 0 0 0 0 0 0 3 3 16 16 23 35 42 39 65 74 84 81 84 90 87 81 84 77 84 81 74 71 65 45 35 39 42 39 39 35 39 35 29 26 23 13 13 13 10 10 6
0 0 0 0 0 0 0 0 0 3 10 16 23 29 32 39 65 77 74 81 84 90 87 87 84 84 84 84 74 71 65 52 48 45 42 35 32 35 32 29 29 29 29 29 13 16 13 10 6
0 0 0 0 0 0 0 0 0 0 3 13 26 32 42 45 58 71 77 77 87 87 87 87 87 84 77 81 81 81 74 55 45 39 32 35 35 29 32 29 23 23 19 23 16 13 19 16 13
0 0 0 0 0 0 0 0 3 6 3 10 23 39 39 52 55 68 74 84 81 90 90 90 90 84 81 77 81 77 68 61 48 42 35 29 35 32 39 29 23 23 23 26 23 16 13 10 10
0 0 0 0 0 0 0 3 3 6 16 19 29 35 52 58 55 61 65 71 71 84 84 81 77 71 74 71 68 71 68 55 52 48 42 32 29 29 26 26 32 35 32 32 26 16 23 16 13
0 0 0 0 0 0 0 3 3 10 19 23 29 42 52 52 52 58 61 71 71 68 74 71 71 71 71 71 71 65 58 58 48 42 39 39 32 29 29 26 26 32 39 35 26 19 19 16 13
0 0 0 0 0 0 0 0 3 10 19 19 29 35 35 39 42 42 52 61 58 58 65 68 65 68 68 68 65 61 61 58 45 35 42 35 32 32 32 35 29 29 32 26 26 23 16 13 13
0 0 0 0 0 0 0 3 6 10 19 26 39 42 42 42 45 55 55 55 61 65 65 61 61 61 58 58 58 61 58 52 48 39 35 35 35 32 32 29 32 29 26 26 23 19 16 16 13
Height
5915 5914 5914 5914 5913 5911 5910 5910 5909 5908 5908 5906 5905 5904 5904 5903 5903 5904 5901 5899 5899 5898 5898 5898 5897 5897 5897 5896 5896 5896 5896 5896 5896 5896 5895 5895 5895 5895 5894 5894 5894 5894 5893 5893 5893 5893 5893 5893 5893
5917 5916 5917 5916 5914 5913 5913 5912 5912 5912 5910 5908 5908 5907 5906 5905 5904 5903 5902 5902 5901 5900 5900 5900 5899 5899 5899 5898 5898 5898 5898 5898 5897 5897 5897 5897 5897 5896 5896 5895 5895 5895 5895 5894 5895 5895 5895 5894 5894
5919 5918 5919 5917 5915 5915 5915 5914 5914 5913 5912 5911 5911 5910 5909 5907 5906 5905 5904 5904 5903 5902 5902 5902 5901 5901 5901 5900 5900 5900 5900 5899 5899 5899 5898 5898 5898 5898 5897 5897 5896 5896 5896 5896 5896 5896 5896 5896 5896
5921 5921 5920 5918 5916 5917 5917 5916 5916 5915 5914 5913 5913 5912 5911 5909 5908 5907 5906 5905 5905 5904 5904 5904 5903 5903 5902 5902 5902 5901 5901 5901 5900 5900 5900 5899 5899 5899 5898 5898 5897 5897 5897 5897 5897 5897 5898 5898 5897
5924 5923 5921 5919 5918 5919 5919 5918 5918 5918 5917 5916 5915 5914 5913 5911 5909 5909 5908 5907 5907 5907 5906 5905 5905 5905 5904 5903 5903 5903 5902 5902 5902 5901 5901 5901 5900 5900 5899 5899 5899 5899 5899 5899 5899 5899 5899 5899 5899
5926 5925 5923 5921 5921 5921 5921 5920 5921 5921 5919 5918 5917 5916 5915 5914 5912 5911 5910 5909 5909 5908 5908 5907 5907 5906 5905 5905 5904 5904 5904 5903 5903 5903 5902 5902 5901 5901 5900 5900 5900 5900 5900 5900 5900 5900 5900 5900 5899
5928 5926 5924 5923 5923 5923 5923 5923 5923 5923 5921 5920 5919 5918 5917 5916 5914 5913 5912 5911 5910 5910 5909 5909 5908 5907 5907 5906 5906 5905 5905 5905 5904 5904 5903 5903 5902 5902 5902 5901 5901 5901 5901 5901 5901 5901 5901 5900 5900
5927 5927 5925 5925 5925 5925 5925 5925 5925 5924 5923 5922 5920 5919 5918 5917 5916 5915 5914 5913 5912 5912 5911 5910 5910 5909 5908 5908 5907 5907 5906 5906 5905 5905 5904 5904 5903 5903 5903 5903 5902 5902 5901 5901 5902 5902 5901 5901 5901
5928 5929 5927 5927 5927 5927 5927 5928 5927 5925 5925 5924 5922 5921 5921 5919 5918 5917 5916 5915 5914 5913 5913 5912 5911 5910 5910 5909 5909 5908 5907 5907 5906 5906 5905 5905 5904 5904 5904 5904 5903 5903 5902 5902 5903 5902 5902 5903 5902
5929 5928 5928 5929 5929 5929 5929 5929 5928 5927 5926 5925 5924 5923 5922 5921 5920 5919 5918 5916 5915 5915 5914 5913 5912 5912 5911 5910 5910 5909 5909 5908 5907 5907 5906 5906 5905 5905 5905 5905 5905 5904 5904 5904 5903 5903 5903 5903 5903
5928 5929 5929 5929 5930 5930 5930 5931 5930 5928 5928 5927 5926 5925 5923 5922 5922 5921 5920 5918 5917 5916 5915 5914 5914 5913 5912 5911 5911 5910 5910 5909 5909 5908 5907 5906 5906 5906 5906 5906 5906 5905 5905 5905 5905 5905 5905 5904 5904
5928 5929 5929 5930 5930 5930 5931 5931 5931 5930 5930 5929 5928 5927 5926 5924 5923 5922 5921 5920 5918 5918 5917 5916 5915 5914 5913 5912 5912 5911 5911 5910 5910 5909 5908 5908 5907 5907 5907 5907 5907 5906 5906 5906 5906 5906 5905 5905 5905
5929 5929 5929 5930 5931 5931 5931 5932 5932 5931 5931 5930 5929 5928 5927 5926 5924 5923 5922 5921 5920 5919 5918 5917 5916 5915 5915 5914 5913 5912 5912 5911 5911 5910 5909 5909 5908 5908 5908 5907 5907 5907 5906 5906 5906 5906 5906 5906 5905
5929 5929 5929 5930 5931 5931 5932 5932 5933 5932 5931 5930 5930 5929 5928 5927 5926 5924 5923 5922 5921 5920 5919 5918 5917 5917 5916 5915 5914 5913 5913 5912 5911 5911 5910 5909 5909 5909 5908 5908 5908 5907 5907 5906 5906 5906 5906 5906 5906
5928 5929 5930 5931 5931 5931 5932 5933 5933 5932 5932 5931 5931 5930 5929 5928 5926 5925 5924 5923 5922 5921 5920 5919 5918 5917 5916 5915 5915 5914 5913 5912 5912 5911 5910 5910 5909 5909 5909 5908 5908 5907 5907 5906 5906 5906 5906 5906 5906
5927 5929 5929 5931 5931 5931 5933 5933 5933 5932 5932 5931 5931 5930 5929 5928 5927 5926 5925 5924 5923 5922 5920 5919 5919 5918 5917 5916 5915 5914 5913 5913 5912 5911 5910 5910 5909 5909 5909 5908 5908 5907 5907 5906 5906 5906 5905 5905 5905
5925 5927 5928 5930 5930 5931 5932 5932 5932 5931 5932 5932 5931 5931 5930 5929 5928 5927 5926 5925 5924 5922 5921 5920 5919 5918 5917 5916 5915 5914 5913 5913 5912 5910 5910 5910 5909 5909 5908 5908 5907 5907 5906 5906 5906 5905 5905 5905 5905
5924 5925 5927 5928 5929 5930 5930 5931 5930 5930 5931 5931 5931 5931 5930 5929 5928 5927 5926 5925 5924 5923 5921 5920 5919 5918 5917 5916 5915 5914 5913 5912 5911 5910 5910 5909 5909 5908 5908 5907 5907 5906 5906 5906 5905 5905 5904 5904 5904
5921 5922 5924 5926 5927 5928 5928 5929 5929 5929 5929 5930 5931 5930 5930 5929 5928 5927 5926 5925 5924 5923 5922 5920 5919 5918 5916 5915 5914 5913 5912 5912 5911 5910 5909 5909 5908 5907 5907 5907 5906 5906 5905 5905 5904 5904 5904 5904 5903
5917 5919 5922 5923 5925 5925 5926 5927 5928 5928 5929 5929 5929 5929 5929 5928 5928 5927 5926 5925 5924 5923 5922 5920 5919 5918 5916 5915 5914 5913 5912 5911 5910 5910 5909 5908 5907 5907 5906 5906 5905 5905 5904 5904 5903 5903 5902 5902 5902
5914 5917 5919 5921 5922 5923 5924 5925 5926 5927 5927 5928 5928 5927 5928 5928 5927 5926 5925 5924 5923 5923 5922 5920 5919 5918 5916 5915 5914 5913 5912 5911 5910 5909 5908 5907 5906 5906 5905 5905 5904 5903 5903 5903 5902 5902 5901 5901 5901
5911 5914 5916 5918 5919 5920 5921 5922 5923 5925 5925 5925 5926 5926 5926 5927 5926 5925 5925 5924 5923 5922 5922 5920 5919 5918 5916 5915 5913 5912 5911 5910 5909 5908 5907 5906 5905 5904 5903 5903 5902 5902 5902 5901 5901 5900 5900 5899 5899
5907 5910 5912 5914 5915 5917 5918 5919 5921 5921 5923 5924 5924 5925 5926 5926 5925 5925 5924 5923 5922 5922 5921 5920 5918 5917 5916 5914 5913 5911 5910 5909 5907 5906 5906 5904 5904 5903 5902 5901 5901 5900 5900 5899 5899 5898 5898 5898 5897
5903 5906 5908 5910 5911 5913 5915 5916 5918 5919 5920 5921 5922 5923 5924 5924 5924 5924 5923 5922 5922 5921 5920 5919 5918 5916 5915 5913 5912 5910 5909 5907 5906 5905 5904 5903 5902 5901 5900 5899 5899 5899 5898 5898 5897 5897 5896 5896 5895
5897 5901 5903 5906 5907 5910 5912 5912 5915 5916 5917 5918 5919 5920 5920 5921 5922 5921 5921 5921 5920 5919 5918 5918 5916 5915 5914 5912 5911 5909 5907 5906 5904 5903 5902 5900 5899 5899 5898 5898 5897 5897 5896 5896 5896 5895 5894 5893 5893
5892 5896 5900 5902 5905 5908 5909 5909 5912 5913 5914 5915 5916 5917 5917 5918 5919 5919 5919 5919 5918 5917 5917 5916 5915 5914 5912 5911 5909 5908 5906 5905 5903 5901 5899 5898 5897 5897 5896 5896 5895 5895 5894 5894 5894 5893 5892 5891 5890
5887 5890 5895 5898 5901 5903 5904 5906 5908 5909 5910 5911 5913 5914 5915 5915 5915 5915 5915 5916 5915 5914 5914 5913 5913 5912 5910 5909 5907 5906 5904 5903 5901 5899 5898 5896 5895 5894 5894 5893 5893 5892 5892 5891 5891 5890 5889 5888 5888
5882 5886 5889 5892 5896 5898 5900 5902 5904 5905 5906 5908 5909 5910 5912 5912 5912 5913 5913 5912 5912 5911 5910 5910 5910 5909 5907 5906 5905 5903 5902 5900 5899 5897 5896 5894 5893 5892 5891 5890 5890 5890 5889 5889 5888 5887 5887 5886 5885
5876 5880 5883 5888 5891 5894 5896 5900 5901 5902 5903 5905 5906 5906 5908 5908 5909 5910 5910 5909 5909 5908 5907 5906 5906 5906 5904 5903 5901 5900 5899 5897 5896 5895 5894 5892 5892 5891 5890 5889 5887 5887 5886 5886 5885 5884 5883 5882 5881
5871 5875 5879 5883 5886 5889 5892 5897 5897 5898 5900 5901 5903 5903 5904 5905 5906 5907 5907 5906 5906 5905 5903 5902 5902 5902 5901 5899 5898 5897 5895 5894 5893 5892 5891 5890 5889 5888 5887 5885 5885 5884 5884 5883 5882 5881 5880 5878 5877
Wind_Speed
16 17 18 18 20 21 22 22 20 19 18 18 16 15 14 13 13 13 13 13 13 12 12 11 11 10 10 10 9 9 9 8 7 6 7 6 6 6 6 6 6 6 6 6 7 7 7 8 8
14 16 17 18 20 20 22 22 19 19 19 19 16 16 14 12 12 13 12 12 13 13 12 11 10 10 9 9 9 8 7 7 6 6 6 6 6 6 6 6 6 6 6 6 7 7 7 8 8
13 15 18 19 19 20 22 22 20 19 19 18 17 16 14 12 12 12 12 12 12 12 11 11 10 9 9 9 8 7 7 6 6 5 5 5 6 5 6 6 5 6 6 6 6 7 8 8 8
11 14 16 18 19 20 21 21 21 19 18 17 17 16 14 13 12 12 12 12 12 11 11 10 10 10 9 8 7 7 6 6 6 6 5 5 5 5 5 6 6 6 5 6 6 7 7 7 7
8 11 15 17 18 19 20 19 19 18 17 17 17 15 14 14 13 13 13 12 11 11 11 10 10 9 9 9 8 7 7 7 6 6 6 5 4 4 4 5 5 5 6 6 6 6 6 6 6
6 9 13 16 17 17 18 18 17 17 17 17 16 16 14 14 13 13 13 12 11 11 11 10 10 10 9 9 8 8 7 7 7 6 6 6 6 5 5 5 5 5 5 6 6 6 5 6 6
6 8 12 15 16 16 16 16 16 17 16 16 16 15 15 14 14 13 13 12 12 12 11 10 10 10 10 9 9 8 7 7 6 5 5 6 5 5 6 6 6 6 6 6 6 6 6 5 5
7 9 11 14 14 14 14 14 15 16 16 16 16 15 15 14 14 13 13 12 12 11 10 11 11 10 10 9 9 8 7 7 6 6 5 6 5 5 6 6 6 6 6 6 6 6 6 5 5
6 8 10 12 12 11 12 12 13 15 15 15 15 15 15 14 14 13 13 12 12 11 11 11 10 11 10 9 9 9 8 7 6 6 6 6 6 6 5 5 5 5 5 6 6 6 6 6 6
4 6 7 8 8 8 10 11 11 14 14 15 15 15 14 14 14 14 13 13 12 12 11 11 10 10 10 10 9 9 8 7 6 6 6 5 5 6 5 5 5 5 6 5 5 5 5 5 5
4 3 5 5 5 6 8 9 10 12 13 13 14 14 14 13 13 13 13 13 13 12 11 11 10 10 10 10 9 9 8 7 7 6 6 6 5 5 4 4 5 5 5 5 5 5 5 5 5
5 2 1 2 3 4 6 8 9 10 11 12 13 13 13 13 13 13 13 13 12 12 11 11 11 11 10 9 9 9 8 7 7 6 5 5 5 5 4 4 4 4 4 4 4 4 4 4 5
8 5 2 2 2 3 6 7 7 7 10 11 12 13 12 12 12 13 13 13 13 12 11 11 10 10 10 9 9 8 7 6 6 6 5 5 5 5 5 4 4 4 3 3 3 3 3 4 4
10 7 6 3 1 2 4 6 7 7 9 11 11 11 11 11 12 12 12 12 12 12 11 10 10 10 9 9 9 7 6 6 6 5 4 4 4 4 4 3 4 3 2 3 2 2 2 2 2
12 10 7 5 2 2 5 6 7 8 9 9 10 10 10 10 11 11 11 12 12 11 11 10 10 10 9 9 8 7 6 5 5 4 4 3 3 3 3 3 3 2 2 1 2 1 1 1 1
13 12 10 7 3 3 5 6 6 7 9 8 8 9 9 10 10 10 10 10 11 11 10 10 9 9 9 8 8 7 6 5 5 4 4 3 3 3 3 3 3 2 2 1 1 1 1 1 2
14 12 10 8 5 5 7 8 7 7 7 7 7 7 8 9 10 10 9 9 9 10 10 10 10 9 9 8 7 6 6 5 5 5 4 4 4 3 3 3 3 2 1 2 1 1 2 2 2
15 13 11 10 7 8 9 9 8 8 7 7 6 7 8 9 9 9 8 8 8 8 9 10 10 10 9 8 8 7 6 5 5 5 4 4 4 3 3 3 3 2 1 2 2 2 2 2 2
18 16 14 12 11 10 10 10 10 10 9 8 8 8 8 9 8 8 8 7 7 8 9 9 9 10 9 9 8 7 6 5 5 4 4 4 4 3 2 3 2 2 2 2 2 2 2 2 2
22 19 15 13 13 13 12 12 11 11 9 8 9 9 8 8 8 7 7 7 7 7 8 9 9 9 9 9 8 7 6 6 5 5 4 4 4 4 4 4 3 2 2 3 3 2 2 3 4
23 20 16 14 13 15 15 14 13 11 10 10 10 10 9 8 7 6 6 6 6 7 7 8 9 9 9 8 8 8 7 6 5 4 4 4 4 5 5 5 4 3 4 4 4 4 4 4 4
24 21 19 18 16 15 16 16 15 13 12 12 11 10 8 9 7 6 5 5 6 6 7 7 8 9 9 9 8 8 7 7 5 5 5 4 5 5 4 4 5 4 4 4 4 5 4 4 5
25 23 22 22 20 18 18 19 17 15 12 11 9 9 9 9 8 7 6 5 5 6 6 7 7 8 9 8 8 9 8 6 6 6 6 5 5 4 4 5 5 5 4 5 5 5 5 5 6
26 26 25 24 23 21 19 20 18 17 13 11 9 9 9 9 9 8 8 6 5 6 6 7 8 8 8 8 8 8 8 7 6 6 6 6 5 5 4 4 5 5 5 5 6 6 7 7 8
29 28 27 27 26 22 20 21 19 17 15 13 11 10 10 10 10 9 8 7 6 6 6 6 8 8 9 9 8 9 8 8 7 7 7 6 5 5 5 5 5 5 5 6 6 7 8 8 9
29 29 29 28 25 21 20 20 18 17 16 15 12 10 11 11 11 10 9 8 7 6 6 7 9 9 9 9 9 9 8 8 8 8 8 6 5 5 5 6 7 7 7 8 8 8 9 9 10
29 29 29 28 25 23 20 18 17 16 15 13 12 11 11 11 11 10 10 9 9 8 7 8 10 10 10 10 10 9 9 9 9 9 8 8 7 6 6 6 7 7 8 9 10 11 11 11 11
29 29 30 29 26 24 21 18 17 15 14 13 13 12 12 12 11 10 10 10 10 10 9 9 11 11 12 11 10 10 10 10 10 9 9 9 8 7 7 7 6 7 8 10 11 11 11 11 12
30 31 31 29 28 25 22 20 18 17 14 14 14 14 13 11 11 11 11 11 11 12 11 11 11 12 12 11 11 11 10 11 11 10 10 9 9 9 8 9 8 8 9 10 11 11 11 12 13
29 30 30 31 29 27 25 22 19 17 16 16 16 15 14 13 13 13 13 13 13 13 12 12 11 11 11 11 11 11 10 10 10 11 10 10 10 10 10 10 10 11 11 11 11 12 13 14 14
Wind_Direction
73 67 62 57 52 51 54 58 58 56 56 56 56 57 58 60 63 66 69 70 72 75 76 77 78 76 75 76 76 76 74 74 81 85 86 85 87 91 97 102 99 100 97 100 101 102 99 101 98
72 66 62 58 53 51 55 56 55 53 54 55 54 54 55 57 61 66 66 67 70 73 72 74 77 77 74 75 77 81 77 75 82 85 88 87 87 88 95 101 102 102 99 97 98 101 104 105 101
73 67 60 58 55 52 54 55 52 48 50 53 53 53 52 55 59 63 65 66 68 69 68 71 74 75 76 74 73 74 77 78 79 81 84 92 93 94 96 98 98 103 102 100 102 105 109 106 98
74 68 61 57 52 51 50 50 50 47 47 51 53 51 51 53 58 62 64 63 65 67 65 67 70 69 69 69 67 73 76 75 72 76 85 96 96 98 101 101 99 98 94 98 105 106 106 104 96
71 63 61 58 52 49 47 45 46 47 46 49 52 51 54 55 54 58 60 60 62 65 65 65 66 65 63 64 66 68 72 72 74 81 92 94 94 103 104 102 104 95 95 96 99 101 99 99 95
63 55 61 57 52 48 45 42 42 44 44 47 51 50 52 55 53 55 58 58 59 62 63 62 63 60 59 57 60 66 69 73 75 82 83 85 91 94 98 99 103 99 94 90 93 98 95 93 93
67 54 60 56 47 44 42 39 42 43 43 46 48 47 46 53 54 55 55 55 58 59 59 60 59 58 59 58 59 63 64 68 66 68 75 74 77 81 90 87 87 89 89 88 86 89 91 94 95
86 63 58 56 46 38 37 34 37 40 41 43 45 46 43 48 51 53 53 53 55 56 57 58 58 57 57 58 59 59 60 64 63 62 71 73 76 78 77 75 77 81 93 94 88 84 87 93 93
89 68 62 57 46 35 38 33 34 37 36 39 42 44 43 45 48 49 49 50 52 53 53 55 57 57 58 57 57 56 59 64 65 64 67 70 71 71 72 74 73 71 84 90 87 81 86 93 91
104 69 60 54 50 37 38 33 34 38 33 37 40 42 43 44 46 47 45 46 48 49 50 53 54 56 56 57 57 57 61 64 68 68 68 69 71 68 68 69 72 78 79 78 77 77 81 92 92
141 84 63 55 33 25 33 31 31 36 34 37 38 38 40 44 45 46 45 45 45 45 47 48 50 54 55 57 57 58 61 62 63 62 63 69 70 68 70 71 75 79 75 71 71 75 79 87 90
177 152 79 28 2 4 20 23 23 26 29 35 37 34 38 42 44 45 45 44 43 44 47 49 50 49 49 52 51 52 56 57 60 58 57 64 66 67 68 75 72 75 76 69 69 72 73 76 78
193 191 218 277 312 357 358 8 9 16 23 28 30 33 35 41 42 43 43 43 41 42 47 49 49 48 47 49 47 46 49 50 51 49 48 56 66 70 68 67 63 62 55 56 67 65 60 63 68
206 206 210 222 258 328 343 353 360 7 10 16 18 26 29 35 38 40 40 40 39 41 47 49 47 45 45 46 46 43 44 43 37 33 32 42 57 65 68 62 62 57 61 61 56 52 42 50 71
213 213 211 208 237 304 323 329 346 357 359 4 12 19 24 25 28 33 35 37 37 39 43 45 43 41 39 39 40 39 38 34 29 27 25 33 48 57 55 49 47 51 61 69 47 29 0 18 41
216 213 211 213 224 283 307 317 328 349 354 356 1 13 21 18 19 23 27 31 33 33 36 37 35 34 33 34 34 30 29 25 22 24 22 20 28 36 36 34 35 44 46 20 15 352 322 321 346
214 215 216 221 226 266 290 309 318 338 348 349 351 6 16 14 12 16 21 26 29 28 28 29 28 26 27 28 27 21 17 13 8 9 12 11 9 19 21 14 14 26 15 359 6 355 347 342 337
207 208 214 222 228 256 283 299 303 324 331 334 346 356 0 7 9 11 15 18 24 24 21 21 20 21 22 20 18 12 10 7 2 359 1 3 6 7 11 10 12 25 16 349 1 351 346 334 328
205 205 210 212 219 244 270 288 294 304 315 317 328 336 343 354 358 2 6 8 12 17 16 15 17 18 16 12 14 13 10 0 352 352 349 343 345 346 343 352 2 5 9 342 328 314 305 295 298
206 206 210 211 215 235 255 272 281 283 298 311 313 321 325 335 342 351 356 4 7 9 10 12 16 14 12 8 11 17 12 5 355 350 344 341 338 331 320 313 317 317 321 318 306 290 285 288 281
211 208 208 210 218 233 248 256 263 270 283 294 304 313 318 323 326 339 348 356 359 360 3 8 12 10 10 9 7 8 4 359 352 343 330 331 335 328 312 298 305 307 303 299 302 298 292 292 287
213 211 210 213 223 233 244 250 254 259 269 283 293 302 305 309 312 323 334 341 342 346 352 358 3 2 1 360 360 357 355 354 351 344 336 326 318 316 312 310 310 305 295 288 289 295 294 296 293
213 212 215 217 223 229 238 244 248 254 260 270 284 296 297 300 303 307 313 319 326 337 343 345 349 353 354 352 351 350 347 348 343 333 326 322 317 312 314 301 302 305 300 286 282 284 287 290 293
214 213 217 221 226 231 235 243 249 256 262 263 274 289 292 289 289 291 296 302 311 323 330 335 338 342 345 344 344 343 342 341 335 332 327 323 310 299 298 296 291 296 301 293 288 287 289 287 291
215 215 218 221 225 233 237 244 250 253 255 258 269 279 283 281 283 277 285 293 295 308 317 326 330 332 333 333 332 335 336 336 328 326 328 323 317 304 294 287 285 284 291 294 292 291 295 295 294
218 220 222 225 228 232 236 243 246 244 250 259 265 274 284 281 278 273 281 285 283 290 300 311 318 320 319 318 318 323 330 333 331 329 331 330 321 303 291 289 285 280 285 287 287 290 292 293 294
219 221 223 226 227 229 232 241 243 245 244 254 269 276 281 282 280 275 282 283 286 286 289 297 307 310 310 309 310 313 316 317 321 323 325 327 309 297 292 293 292 283 282 284 286 288 288 285 287
218 219 220 223 224 227 231 240 243 250 252 259 268 277 277 280 282 279 280 281 282 285 286 288 295 300 305 305 304 308 308 308 313 317 317 314 308 301 293 297 299 292 286 286 288 290 287 286 286
216 218 221 223 223 225 231 235 239 248 252 257 262 267 270 279 285 283 281 282 285 285 282 280 284 292 297 298 302 303 302 301 302 308 309 305 299 294 293 291 295 298 297 291 293 291 286 286 287
218 220 221 220 222 225 231 234 238 244 252 257 261 269 269 277 284 286 287 285 286 288 285 284 282 285 289 293 296 294 298 299 298 300 303 301 295 290 291 288 289 295 300 300 296 291 288 287 287